Location: Observatoire
(46.1952°N, 5.3391°E)
Time: 16:53:59
(UTC+01:00)

Injun/Solrad 3 - Pass Details

Date: 16 February 2026
Orbit: 872 x 984 km, 66.8° (Epoch: 7 March)

Event Time Altitude Azimuth Distance (km) Brightness Sun altitude
Rises 20:39:29 0° 327° (NNW) 3,565 11.6 -27.1°
Reaches altitude 10° 20:42:00 10° 329° (NNW) 2,635 10.8 -27.5°
Enters shadow 20:48:01 77° 40° (NE) 975 7.8 -28.5°
